This demonstration page uses our WeatherBlox Daily Observations layout. Learn more.

Hourly Observations for October 26, 2019

Temp ( °F °C ) Dew Point ( °F °C ) Humidity (%) Winds ( mph kmh ) Pressure ( in mb ) Visibility ( mi km ) Precip ( " mm )
12:54 am 00:54 Clear 36 2.2 26 -3.3 67 67 SSE 6 9 30.09 1019 10 16.09344 0 0
1:54 am 01:54 Clear 37 2.8 27 -2.8 67 67 SE 6 9 30.06 1018 10 16.09344 0 0
2:54 am 02:54 Clear 36 2.2 27 -2.8 70 70 SSE 5 7 30.03 1017 10 16.09344 0 0
3:54 am 03:54 Clear 35 1.7 27 -2.8 72 72 SE 6 9 30.03 1017 10 16.09344 0 0
4:54 am 04:54 Clear 36 2.2 27 -2.8 70 70 SSE 3 6 30 1016 10 16.09344 0 0
5:54 am 05:54 Clear 34 1.1 27 -2.8 76 76 SSE 5 7 29.97 1015 10 16.09344 0 0
6:54 am 06:54 Clear 32 0 26 -3.3 79 79 SE 5 7 29.94 1014 10 16.09344 0 0
7:54 am 07:54 Sunny 30 -1.1 24 -4.4 79 79 SSE 6 9 29.91 1013 10 16.09344 0 0
8:54 am 08:54 Sunny 34 1.1 28 -2.2 79 79 SSE 5 7 29.91 1013 10 16.09344 0 0
9:54 am 09:54 Sunny 40 4.4 32 0 73 73 SSE 7 11 29.88 1012 10 16.09344 0 0
10:54 am 10:54 Sunny 50 10 33 0.6 52 52 S 10 17 29.85 1011 10 16.09344 0 0
11:54 am 11:54 Sunny 54 12.2 31 -0.6 42 42 S 14 22 29.83 1010 10 16.09344 0 0
12:54 pm 12:54 Sunny 56 13.3 32 0 40 40 S 13 20 29.8 1009 10 16.09344 0 0
1:54 pm 13:54 Sunny 59 15 32 0 36 36 S 15 24 29.74 1007 10 16.09344 0 0
3:54 pm 15:54 Sunny 62 16.7 31 -0.6 31 31 S 17 28 29.68 1005 10 16.09344 0 0
4:54 pm 16:54 Sunny 61 16.1 30 -1.1 31 31 S 14 22 29.65 1004 10 16.09344 0 0
5:54 pm 17:54 Sunny 59 15 30 -1.1 33 33 S 9 15 29.68 1005 10 16.09344 0 0
6:54 pm 18:54 Clear 49 9.4 31 -0.6 50 50 S 9 15 29.68 1005 10 16.09344 0 0
7:54 pm 19:54 Clear 48 8.9 30 -1.1 50 50 SSE 7 11 29.68 1005 10 16.09344 0 0
8:54 pm 20:54 Clear 49 9.4 30 -1.1 48 48 Calm 29.71 1006 10 16.09344 0 0
9:54 pm 21:54 Clear 46 7.8 31 -0.6 56 56 NNW 6 9 29.74 1007 10 16.09344 0 0
10:54 pm 22:54 Clear 47 8.3 32 0 56 56 NW 9 15 29.74 1007 10 16.09344 0 0
11:54 pm 23:54 Clear 41 5 31 -0.6 67 67 NW 7 11 29.77 1008 10 16.09344 0 0

Powered by AerisWeather